TimeEST,TemperatureF,Dew PointF,Humidity,Sea Level PressureIn,VisibilityMPH,Wind Direction,Wind SpeedMPH,Gust SpeedMPH,PrecipitationIn,Events,Conditions,WindDirDegrees,DateUTC
12:09 AM,48.2,46.4,93,30.26,10.0,NNE,6.9,-,N/A,,Overcast,20,2013-01-04 05:09:00
12:28 AM,48.2,44.6,87,30.25,10.0,NE,6.9,-,N/A,,Overcast,50,2013-01-04 05:28:00
12:56 AM,48.0,45.0,89,30.25,10.0,NE,6.9,-,N/A,,Overcast,40,2013-01-04 05:56:00
1:09 AM,46.4,44.6,93,30.24,9.0,NE,6.9,-,N/A,,Overcast,40,2013-01-04 06:09:00
1:53 AM,46.4,44.6,93,30.27,8.0,NNE,8.1,-,N/A,,Overcast,20,2013-01-04 06:53:00
1:56 AM,46.9,44.1,90,30.27,8.0,NNE,10.4,-,N/A,,Overcast,20,2013-01-04 06:56:00
2:20 AM,46.4,42.8,87,30.28,10.0,NNE,8.1,-,N/A,,Overcast,20,2013-01-04 07:20:00
2:56 AM,46.0,42.1,86,30.30,10.0,NE,8.1,-,N/A,,Overcast,50,2013-01-04 07:56:00
3:07 AM,46.4,42.8,87,30.29,10.0,NE,6.9,-,N/A,,Overcast,50,2013-01-04 08:07:00
3:56 AM,46.0,41.0,83,30.29,10.0,NE,10.4,-,N/A,,Overcast,40,2013-01-04 08:56:00
4:56 AM,45.0,41.0,86,30.28,10.0,ENE,5.8,-,N/A,,Overcast,70,2013-01-04 09:56:00
5:23 AM,42.8,37.4,81,30.28,10.0,NE,8.1,-,N/A,,Scattered Clouds,40,2013-01-04 10:23:00
5:56 AM,41.0,37.9,89,30.29,10.0,NE,3.5,-,N/A,,Clear,50,2013-01-04 10:56:00
6:56 AM,39.9,37.9,93,30.31,7.0,Calm,Calm,-,N/A,,Clear,0,2013-01-04 11:56:00
7:45 AM,39.2,37.4,93,30.34,2.5,Calm,Calm,-,N/A,,Scattered Clouds,0,2013-01-04 12:45:00
7:56 AM,39.0,37.0,93,30.34,2.5,Calm,Calm,-,N/A,,Scattered Clouds,0,2013-01-04 12:56:00
8:10 AM,37.4,37.4,100,30.33,1.0,NNE,4.6,-,N/A,Fog,Shallow Fog,30,2013-01-04 13:10:00
8:17 AM,37.4,35.6,93,30.33,2.5,NNE,4.6,-,N/A,Fog,Shallow Fog,20,2013-01-04 13:17:00
8:28 AM,39.2,37.4,93,30.33,3.0,NNE,5.8,-,N/A,,Scattered Clouds,20,2013-01-04 13:28:00
8:56 AM,45.0,41.0,86,30.35,4.0,NNE,4.6,-,N/A,,Scattered Clouds,30,2013-01-04 13:56:00
9:56 AM,46.9,39.0,74,30.35,6.0,East,6.9,-,N/A,,Scattered Clouds,80,2013-01-04 14:56:00
10:56 AM,50.0,36.0,59,30.35,10.0,ENE,5.8,-,N/A,,Mostly Cloudy,60,2013-01-04 15:56:00
11:56 AM,52.0,35.1,53,30.34,10.0,East,4.6,-,N/A,,Scattered Clouds,100,2013-01-04 16:56:00
12:56 PM,53.1,34.0,48,30.30,10.0,Variable,4.6,-,N/A,,Scattered Clouds,0,2013-01-04 17:56:00
1:56 PM,55.9,34.0,44,30.28,10.0,NNE,5.8,-,N/A,,Mostly Cloudy,20,2013-01-04 18:56:00
2:56 PM,55.9,33.1,42,30.28,10.0,NW,5.8,-,N/A,,Clear,320,2013-01-04 19:56:00
3:56 PM,55.9,33.1,42,30.28,10.0,NW,3.5,-,N/A,,Clear,320,2013-01-04 20:56:00
4:56 PM,54.0,33.1,45,30.28,10.0,Calm,Calm,-,N/A,,Clear,0,2013-01-04 21:56:00
5:56 PM,48.0,39.0,71,30.29,10.0,Calm,Calm,-,N/A,,Clear,0,2013-01-04 22:56:00
6:56 PM,45.0,37.9,76,30.30,10.0,SW,3.5,-,N/A,,Clear,230,2013-01-04 23:56:00
7:56 PM,43.0,37.9,82,30.32,10.0,WSW,5.8,-,N/A,,Clear,250,2013-01-05 00:56:00
8:56 PM,42.1,37.9,85,30.33,10.0,WSW,3.5,-,N/A,,Clear,240,2013-01-05 01:56:00
9:56 PM,46.0,37.9,73,30.33,10.0,WNW,6.9,-,N/A,,Clear,300,2013-01-05 02:56:00
10:56 PM,43.0,37.9,82,30.33,10.0,Calm,Calm,-,N/A,,Clear,0,2013-01-05 03:56:00
11:56 PM,41.0,37.0,86,30.34,10.0,Calm,Calm,-,N/A,,Clear,0,2013-01-05 04:56:00